Regional Weather Roundup
Issued by NWS

Home | Current Version | Previous Version | Graphics & Text | Print | Product List | Glossary On
Versions: 1 2 3 4 5 6 7 8 9 10 11 12 13 14 15 16 17 18 19 20 21 22 23 24 25 26 27 28 29 30 31 32 33 34 35 36 37 38 39 40 41 42 43 44 45 46 47 48 49 50
000
ASUS43 KDMX 010307
RWRIA

WEATHER ROUNDUP FOR IOWA
NATIONAL WEATHER SERVICE DES MOINES IA
900 PM CST SAT JAN 31 2015

NOTE: "FAIR" INDICATES FEW OR NO CLOUDS BELOW 12,000 FEET WITH NO
SIGNIFICANT WEATHER AND/OR OBSTRUCTIONS TO VISIBILITY.

* - THESE STATIONS ARE NOT NWS STATIONS...THUS NOT UNDER NWS
QUALITY CONTROL.  THEY ALSO DO NOT REPORT WEATHER SUCH
AS PRECIPITATION OR FOG.

IAZ001>003-012>014-020>022-031>034-043>046-010400-
   NORTHWEST IOWA

CITY           SKY/WX    TMP DP  RH WIND       PRES   REMARKS
CARROLL *      LGT SNOW  32  32 100 E10       29.96F WCI  24
CHEROKEE *     LGT SNOW  30  30 100 NE12      29.99S WCI  21
DENISON *      LGT SNOW  32  32 100 E8        29.93F WCI  25
LE MARS *      LGT SNOW  30  28  93 NE15      29.99F WCI  19
ORANGE CITY *  LGT SNOW  28  27  93 E16       29.99S WCI  17
SHELDON *      MIX PCPN  27  27 100 NE23G32   29.99F WCI  12
SIOUX CITY     LGT SNOW  31  28  89 E15       29.96F VSB 1   WCI  20
SPENCER        LGT SNOW  28  25  88 NE20G28   30.02F VSB 1   WCI  15
STORM LAKE *   LGT SNOW  30  28  93 NE17      29.97F VSB 3/4 WCI  18
$$

IAZ055>058-069>071-079>083-090>094-010400-
   SOUTHWEST IOWA

CITY           SKY/WX    TMP DP  RH WIND       PRES   REMARKS
ATLANTIC *     LGT SNOW  32  32 100 NE6       29.93F WCI  26
AUDUBON *      LGT SNOW  34  30  86 E5        29.95F WCI  30
CLARINDA *     LGT SNOW  34  34 100 SE8G14    29.94F WCI  27
COUNCIL BLFS * LGT SNOW  32  32 100 E6        29.90F WCI  26
CRESTON *      LGT SNOW  32  32 100 S15       29.93F WCI  22
HARLAN  *      LGT SNOW  32  32 100 E7        29.97F WCI  26
LAMONI         LGT SNOW  32  32 100 SE10      29.95F VSB 1   WCI  24
RED OAK *      LGT SNOW  34  34 100 SE8       29.92F WCI  27
SHENANDOAH *   LGT SNOW  34  34 100 SE7       29.92F WCI  28
$$

IAZ047>049-059>061-072>074-084-010400-
   CENTRAL IOWA

CITY           SKY/WX    TMP DP  RH WIND       PRES   REMARKS
AMES           LGT SNOW  32  31  96 E6        30.00F VSB 3/4 WCI  26
ANKENY *       LGT SNOW  32  32 100 E6        30.00F WCI  26
CHARITON *     LGT SNOW  34  32  93 SE13      29.97F WCI  25
DES MOINES     LGT SNOW  34  32  92 E5        29.99F VSB 3/4 WCI  30
GRINNELL*      LGT SNOW  32  32 100 E5        30.02F VSB 1   WCI  27
KNOXVILLE *    LGT SNOW  32  32 100 SE10      29.98F WCI  24
MARSHALLTOWN   LGT SNOW  32  32 100 E7        30.01F VSB 3/4 WCI  26
PELLA *        HVY RAIN  32  32 100 SE7       30.02F WCI  26
PERRY *        LGT SNOW  32  32 100 E7        29.98F VSB 1   WCI  26
$$

IAZ004>006-015-016-023>025-035-036-010400-
   NORTH CENTRAL IOWA

CITY           SKY/WX    TMP DP  RH WIND       PRES   REMARKS
ALGONA *       LGT SNOW  30  30 100 NE20      30.03F VSB 3/4 WCI  18
CLARION *      LGT SNOW  30  30 100 E16       30.01F VSB 1   WCI  19
ESTHERVILLE    LGT SNOW  25  24  96 NE21      30.04F VSB 1   WCI  11
FORT DODGE *   CLOUDY    32  28  86 CALM      30.00F
MASON CITY     LGT SNOW  28  26  92 NE20      30.06F VSB 1   WCI  15
FOREST CITY *  LGT SNOW  30  27  86 NE10G21   30.05F WCI  21
IOWA FALLS *   LGT SNOW  32  32 100 E6        30.02F VSB 3/4 WCI  26
$$

IAZ007>011-017>019-026>030-037>042-050>054-066-010400-
   NORTHEAST IOWA

CITY           SKY/WX    TMP DP  RH WIND       PRES   REMARKS
CEDAR RAPIDS   LGT SNOW  32  32 100 SE6       30.06S VSB 1   WCI  26
CHARLES CITY * LGT SNOW  28  28 100 NE15G21   30.07F VSB 3/4 WCI  17
CLINTON *      CLOUDY    34  30  86 SE6       30.13F WCI  29
DECORAH *      LGT SNOW  28  27  93 NE7       30.09F WCI  21
DUBUQUE        LGT SNOW  30  28  92 E9        30.08F VSB 3/4 WCI  22
MONTICELLO *   LGT SNOW  32  32 100 E3        30.08S
OELWEIN *      LGT SNOW  30  30 100 E14       30.06F VSB 3/4 WCI  20
WATERLOO       LGT SNOW  31  30  96 E13       30.05F VSB 1   WCI  21
$$

IAZ064-065-067-068-078-010400-
   EAST CENTRAL IOWA

CITY           SKY/WX    TMP DP  RH WIND       PRES   REMARKS
DAVENPORT      LGT SNOW  32  30  92 S7        30.10F VSB 1   WCI  26
IOWA CITY      LGT RAIN  33  33 100 SE7       30.09F FOG     WCI  27
MT. PLEASANT * LGT SNOW  32  32 100 SE7       30.08F WCI  26
MUSCATINE *    CLOUDY    34  34 100 CALM      30.11F FOG
QUAD CITIES    RAIN      33  32  96 CALM      30.10F FOG
$$

IAZ062-063-075>077-085>089-095>099-010400-
   SOUTHEAST IOWA

CITY           SKY/WX    TMP DP  RH WIND       PRES   REMARKS
BURLINGTON     LGT SNOW  33  33 100 S7        30.09F FOG     WCI  27
FAIRFIELD *    LGT SNOW  32  32 100 SE9       30.05F WCI  24
FORT MADISON * LGT SNOW  32  32 100 SE6       30.09F WCI  26
KEOKUK *       CLOUDY    34  34 100 SE7       30.08F FOG     WCI  28
OSKALOOSA *    LGT SNOW  32  32 100 SE9       30.03F WCI  24
CENTERVILLE *  LGT SNOW  32  32 100 SE9       30.02F WCI  24
OTTUMWA        LGT SNOW  33  33 100 SE12      30.03F FOG     WCI  24
WASHINGTON *   MIX PCPN  34  34 100 SE10      30.06F WCI  26
$$

ABBREVIATIONS USED IN REMARKS
   TC - TEMPERATURES IN CELSIUS
  WCI - WIND CHILL INDEX
   HX - HEAT INDEX
  VSB - VISIBILITY
$$



USA.gov is the U.S. government's official web portal to all federal, state and local government web resources and services.